Location: Recife
(8.0585°S, 34.8848°W)
Time: 20:28:16
(UTC-03:00)

A-11 Canister half - Pass Details

Date: 17 April 2026
Orbit: 1515 x 1684 km, 47.2° (Epoch: 16 May)

Event Time Altitude Azimuth Distance (km) Brightness Sun altitude
Rises 22:33:58 0° 200° (SSW) 4,789 - -78.6°
Reaches altitude 10° 22:38:17 10° 184° (S) 3,771 - -79.6°
Maximum altitude 22:44:53 21° 139° (SE) 2,975 - -81.2°
Drops below altitude 10° 22:51:20 10° 94° (E) 3,690 - -82.7°
Sets 22:55:25 0° 79° (ENE) 4,656 - -83.6°
